sat.trackr.live / text

‹ back to catalog

VIGORIDE-7

NORAD 68473 · 2026-067BK

PAYLOAD ACTIVE UNKNOWN

§ Identity

Operator
Country
US
Launch date
2026-03-30
Launch site
AFWTR
Launch vehicle
Mass (kg)
RCS (m²)

External: N2YO · Heavens-Above · Gunter

§ Orbital elements

Epoch: 2026-09-20T03:00:14.408064Z

Period
94.51 min
Inclination
97.4639°
Eccentricity
0.0009665
Mean motion
15.23654350 rev/d
Perigee alt
488.2 km
Apogee alt
501.5 km
Semi-major
6,873.0 km
B*
2.6438e-4
RAAN
221.1377°
Arg perigee
163.5936°
Mean anomaly
196.5615°
Rev number
2,638

§ Raw data

VIGORIDE-71 68473U 26067BK  26263.12516676  .00006275  00000+0  26438-3 0  99972 68473  97.4639 221.1377 0009665 163.5936 196.5615 15.23654350 26386

JSON: /api/v1/satellites/68473 · /tle

For live sub-satellite position, see the globe view (requires WebGL).

§ Visibility from observer

Set your observer location to see the next 7 days of passes ≥ 10°. The values pass through the URL so the page stays shareable.

No JS? Fill the form by hand. The geolocation button needs JavaScript.